N0KTA-2 Weather Reports


Display with metric or nautical units.
time (UTC)temp
F
wind
direction
speed
MPH
gust
MPH
rain 1hr
in
rain 24hr
in
rain mn
in
humidity
%
barometer
mb
20260508012633 71 203 2.0 3.0 0.00 0.00 0.00 32 1006.7
20260508011633 72 213 1.0 2.0 0.00 0.00 0.00 32 1006.6
20260508010632 73 192 2.0 3.0 0.00 0.00 0.00 30 1006.5
20260508005633 74 226 3.0 3.0 0.00 0.00 0.00 30 1006.7
20260508004632 75 193 1.0 3.0 0.00 0.00 0.00 29 1006.5
20260508003633 76 191 2.0 5.0 0.00 0.00 0.00 28 1006.5
20260508002633 76 205 5.0 6.0 0.00 0.00 0.00 27 1006.7
20260508001632 77 194 3.0 7.0 0.00 0.00 0.00 28 1006.6
20260508000633 77 189 3.0 7.0 0.00 0.00 0.00 27 1006.6
20260507235632 76 199 3.0 9.0 0.00 0.00 0.00 29 1006.9
20260507234632 76 237 2.0 7.0 0.00 0.00 0.00 28 1007.0
20260507233633 76 282 1.0 2.0 0.00 0.00 0.00 28 1006.9
20260507232632 76 207 1.0 3.0 0.00 0.00 0.00 29 1007.0
20260507231633 76 232 3.0 3.0 0.00 0.00 0.00 28 1007.0
20260507230632 76 219 2.0 3.0 0.00 0.00 0.00 30 1007.2
20260507225633 76 275 1.0 5.0 0.00 0.00 0.00 29 1007.2
20260507224632 76 274 1.0 3.0 0.00 0.00 0.00 29 1007.4
20260507223633 76 245 1.0 3.0 0.00 0.00 0.00 30 1007.5
20260507222632 76 302 2.0 2.0 0.00 0.00 0.00 29 1007.5
20260507221631 76 284 1.0 3.0 0.00 0.00 0.00 31 1007.6
20260507220632 76 266 1.0 3.0 0.00 0.00 0.00 29 1007.8
20260507215633 75 282 2.0 2.0 0.00 0.00 0.00 31 1008.0
20260507214631 75 269 1.0 3.0 0.00 0.00 0.00 31 1008.0
20260507213632 75 284 0.0 1.0 0.00 0.00 0.00 32 1008.0
20260507212632 75 278 2.0 3.0 0.00 0.00 0.00 31 1008.3
20260507211633 74 280 0.0 3.0 0.00 0.00 0.00 32 1008.5
20260507210632 74 288 2.0 3.0 0.00 0.00 0.00 31 1008.7
20260507210103 74 248 1.0 3.0 0.00 0.00 0.00 33 1008.5
20260507205104 74 284 2.0 3.0 0.00 0.00 0.00 32 1008.9
20260507204103 73 283 1.0 2.0 0.00 0.00 0.00 33 1009.1
20260507203104 73 285 2.0 2.0 0.00 0.00 0.00 34 1009.2
20260507202103 73 286 2.0 3.0 0.00 0.00 0.00 32 1009.6
20260507201104 72 249 1.0 2.0 0.00 0.00 0.00 34 1009.7
20260507200103 72 278 2.0 3.0 0.00 0.00 0.00 36 1010.1
20260507195104 71 290 2.0 2.0 0.00 0.00 0.00 33 1010.0
20260507194103 71 280 2.0 3.0 0.00 0.00 0.00 35 1010.2
20260507193104 71 278 1.0 3.0 0.00 0.00 0.00 37 1010.2
20260507192105 70 288 2.0 2.0 0.00 0.00 0.00 35 1010.5
20260507191104 70 269 2.0 5.0 0.00 0.00 0.00 37 1010.8
20260507185104 69 280 2.0 3.0 0.00 0.00 0.00 39 1010.9
20260507184104 68 276 2.0 2.0 0.00 0.00 0.00 38 1011.4
20260507183103 68 268 1.0 3.0 0.00 0.00 0.00 39 1011.5
20260507182104 67 285 2.0 3.0 0.00 0.00 0.00 40 1011.8
20260507181105 67 288 2.0 3.0 0.00 0.00 0.00 40 1012.0
20260507180103 66 265 2.0 2.0 0.00 0.00 0.00 42 1012.1
20260507175105 66 285 2.0 3.0 0.00 0.00 0.00 42 1012.1
20260507174104 65 275 1.0 2.0 0.00 0.00 0.00 45 1012.6
20260507173103 65 277 1.0 3.0 0.00 0.00 0.00 45 1012.7
20260507172103 65 277 1.0 3.0 0.00 0.00 0.00 43 1012.9
20260507171104 64 287 1.0 3.0 0.00 0.00 0.00 46 1013.2
20260507170103 64 295 2.0 6.0 0.00 0.00 0.00 47 1013.5
20260507165104 63 287 1.0 3.0 0.00 0.00 0.00 49 1013.6
20260507164103 63 244 3.0 7.0 0.00 0.00 0.00 48 1013.8
20260507163104 62 293 3.0 5.0 0.00 0.00 0.00 49 1014.0
20260507162103 62 282 2.0 3.0 0.00 0.00 0.00 50 1014.0
20260507161104 61 286 2.0 3.0 0.00 0.00 0.00 51 1014.0
20260507160103 61 276 1.0 3.0 0.00 0.00 0.00 52 1013.9
20260507155104 61 276 1.0 5.0 0.00 0.00 0.00 53 1014.0
20260507154104 60 279 1.0 1.0 0.00 0.00 0.00 54 1014.3
20260507153103 59 263 1.0 3.0 0.00 0.00 0.00 55 1014.4
20260507152103 59 274 2.0 5.0 0.00 0.00 0.00 56 1014.5
20260507151104 58 270 1.0 2.0 0.00 0.00 0.00 58 1014.7
20260507150103 58 285 2.0 3.0 0.00 0.00 0.00 58 1014.9
20260507145106 57 278 1.0 1.0 0.00 0.00 0.00 62 1015.0
20260507144104 56 284 2.0 3.0 0.00 0.00 0.00 63 1015.0
20260507143103 56 284 2.0 3.0 0.00 0.00 0.00 63 1015.1
20260507142104 55 283 1.0 1.0 0.00 0.00 0.00 66 1015.1
20260507141103 54 274 1.0 1.0 0.00 0.00 0.00 69 1015.3
20260507140104 54 284 1.0 1.0 0.00 0.00 0.00 70 1015.4
20260507135104 53 286 1.0 3.0 0.00 0.00 0.00 71 1015.6
20260507134103 52 291 1.0 2.0 0.00 0.00 0.00 73 1015.6
20260507133104 51 285 1.0 2.0 0.00 0.00 0.00 77 1015.8
20260507132103 50 292 1.0 1.0 0.00 0.00 0.00 79 1015.7
20260507131104 50 296 0.0 2.0 0.00 0.00 0.00 80 1015.9
20260507125103 48 355 0.0 2.0 0.00 0.00 0.00 84 1015.8
20260507124104 47 44 0.0 0.0 0.00 0.00 0.00 85 1015.7
20260507123105 46 44 0.0 0.0 0.00 0.00 0.00 87 1015.7
20260507122105 45 44 0.0 0.0 0.00 0.00 0.00 86 1015.8
20260507121103 45 44 0.0 0.0 0.00 0.00 0.00 86 1015.8
20260507120104 45 44 0.0 0.0 0.00 0.00 0.00 85 1015.5
20260507115103 45 44 0.0 0.0 0.00 0.00 0.00 84 1015.3
20260507114103 45 44 0.0 0.0 0.00 0.00 0.00 84 1015.3
20260507113103 45 44 0.0 0.0 0.00 0.00 0.00 83 1015.3
20260507112104 46 44 0.0 0.0 0.00 0.00 0.00 83 1015.3
20260507111103 46 44 0.0 0.0 0.00 0.00 0.00 82 1015.2
20260507105104 47 44 0.0 0.0 0.00 0.00 0.00 82 1015.1
20260507104103 47 44 0.0 0.0 0.00 0.00 0.00 82 1015.1
20260507103102 47 44 0.0 0.0 0.00 0.00 0.00 82 1015.1
20260507102103 47 44 0.0 0.0 0.00 0.00 0.00 82 1015.3
20260507101104 46 44 0.0 0.0 0.00 0.00 0.00 82 1015.4
20260507100103 47 44 0.0 0.0 0.00 0.00 0.00 79 1015.3
20260507095104 47 44 0.0 0.0 0.00 0.00 0.00 78 1015.4
20260507094103 48 44 0.0 0.0 0.00 0.00 0.00 78 1015.4
20260507093103 48 44 0.0 0.0 0.00 0.00 0.00 77 1015.3
20260507092104 49 44 0.0 0.0 0.00 0.00 0.00 77 1015.4
20260507091103 49 44 0.0 0.0 0.00 0.00 0.00 75 1015.4
20260507090105 50 44 0.0 0.0 0.00 0.00 0.00 74 1015.3
20260507085103 50 44 0.0 0.0 0.00 0.00 0.00 73 1015.2
20260507084104 51 44 0.0 0.0 0.00 0.00 0.00 73 1015.3
20260507083103 51 44 0.0 0.0 0.00 0.00 0.00 72 1015.5
20260507082103 51 44 0.0 0.0 0.00 0.00 0.00 72 1015.4
20260507081103 51 44 0.0 0.0 0.00 0.00 0.00 73 1015.5
20260507080104 51 44 0.0 0.0 0.00 0.00 0.00 72 1015.5
20260507075103 51 44 0.0 2.0 0.00 0.00 0.00 73 1015.6
20260507074103 51 44 0.0 0.0 0.00 0.00 0.00 73 1015.6
20260507073103 50 44 0.0 0.0 0.00 0.00 0.00 73 1015.9
20260507072104 51 44 0.0 0.0 0.00 0.00 0.00 72 1015.9
20260507071103 51 44 0.0 2.0 0.00 0.00 0.00 72 1015.9
20260507070104 51 44 0.0 0.0 0.00 0.00 0.00 74 1016.0
20260507065102 51 44 0.0 0.0 0.00 0.00 0.00 78 1016.0
20260507064103 50 44 0.0 0.0 0.00 0.00 0.00 77 1016.1
20260507063102 50 44 0.0 0.0 0.00 0.00 0.00 77 1016.2
20260507062103 50 44 0.0 0.0 0.00 0.00 0.00 76 1016.1
20260507061103 50 44 0.0 0.0 0.00 0.00 0.00 76 1016.1
20260507060104 50 44 0.0 0.0 0.00 0.00 0.00 75 1016.3
20260507055103 49 44 0.0 0.0 0.00 0.00 0.00 78 1016.4
20260507054104 49 44 0.0 0.0 0.00 0.00 0.00 74 1016.5
20260507053103 49 44 0.0 0.0 0.00 0.00 0.00 75 1016.3
20260507052103 49 44 0.0 0.0 0.00 0.00 0.00 74 1016.2
20260507051104 49 44 0.0 0.0 0.00 0.00 0.00 73 1016.3
20260507050103 49 44 0.0 0.0 0.00 0.00 0.00 72 1016.3
20260507045104 50 44 0.0 0.0 0.00 0.00 0.00 72 1016.3
20260507044103 50 44 0.0 0.0 0.00 0.00 0.00 71 1016.3
20260507043104 50 44 0.0 0.0 0.00 0.00 0.00 70 1016.2
20260507042104 51 44 0.0 0.0 0.00 0.00 0.00 68 1016.1
20260507041103 52 44 0.0 0.0 0.00 0.00 0.00 67 1015.9
20260507040104 53 44 0.0 0.0 0.00 0.00 0.00 65 1016.3
20260507035102 53 44 0.0 0.0 0.00 0.00 0.00 64 1016.3
20260507034102 54 44 0.0 0.0 0.00 0.00 0.00 64 1016.2
20260507033104 54 44 0.0 0.0 0.00 0.00 0.00 62 1016.1
20260507032104 55 28 0.0 0.0 0.00 0.01 0.00 59 1016.0
20260507031103 55 28 0.0 0.0 0.00 0.01 0.00 59 1016.1
20260507025104 55 28 0.0 0.0 0.00 0.01 0.00 58 1016.0
20260507024103 55 28 0.0 0.0 0.00 0.01 0.00 59 1015.9
20260507023104 55 28 0.0 0.0 0.00 0.02 0.00 58 1015.8
20260507022103 55 28 0.0 0.0 0.00 0.02 0.00 59 1015.8
20260507021103 56 28 0.0 0.0 0.00 0.02 0.00 55 1015.8
20260507020104 56 28 0.0 0.0 0.00 0.02 0.00 56 1015.6
20260507015104 57 28 0.0 0.0 0.00 0.02 0.00 60 1015.2
20260507014104 57 28 0.0 0.0 0.00 0.02 0.00 56 1015.2